Regional Weather Roundup
Issued by NWS

Home | Current Version | Previous Version | Text Only | Print | Product List | Glossary Off
Versions: 1 2 3 4 5 6 7 8 9 10 11 12 13 14 15 16 17 18 19 20 21 22 23 24 25 26 27 28 29 30 31 32 33 34 35 36 37 38 39 40 41 42 43 44 45 46 47 48 49

000
ASUS45 KBOU 232107
RWRCO

WEATHER ROUNDUP FOR COLORADO
NATIONAL WEATHER SERVICE DENVER/BOULDER CO
300 PM MDT SUN APR 23 2017

NOTE: "FAIR" INDICATES FEW OR NO CLOUDS BELOW 12000 FEET WITH NO
SIGNIFICANT WEATHER AND/OR OBSTRUCTIONS TO VISIBILITY.

COZ001>005-013-030-031-232200-
...NORTHWEST COLORADO...

CITY           SKY/WX    TMP DP  RH WIND       PRES   REMARKS
CRAIG          FAIR      69  24  18 SW17G32   29.84F
HAYDEN         FAIR      64  23  20 W17G28    29.86F
MEEKER         FAIR      69  24  18 S15G25    29.85F
MOUNT WERNER   NOT AVBL
STEAMBOAT SPGS FAIR      67  24  20 SW12G22   29.87F
WALDEN           N/A     63  21  20 SW14G30   29.93F
$$

COZ006>008-011-232200-
...WEST CENTRAL VALLEYS...

CITY           SKY/WX    TMP DP  RH WIND       PRES   REMARKS
GRAND JUNCTION FAIR      74  26  16 NW14      29.79F
MONTROSE       FAIR      76  21  12 SW24G32   29.86F
EAGLE          MOSUNNY   72  23  16 SW17G32   29.86F
RIFLE          FAIR      75  22  13 W16G23    29.81F
DELTA          FAIR      82  19   9 SW18G32   29.83F
NUCLA          FAIR      75  21  13 S18G28    29.94F
$$

COZ017>023-064>068-232200-
...SOUTHWEST COLORADO...

CITY           SKY/WX    TMP DP  RH WIND       PRES   REMARKS
DURANGO        FAIR      68  17  14 MISG      30.02F
CORTEZ         FAIR      71  24  17 S14       29.96F
PAGOSA SPRINGS FAIR      66  17  15 S12G21    30.08F
TELLURIDE      FAIR      59  23  24 S7        30.09S
WOLF CREEK PAS FAIR      39  25  56 S26G46    30.28F
$$

COZ009-010-012-014-032>034-037-058>063-232200-
...CENTRAL COLORADO...

CITY           SKY/WX    TMP DP  RH WIND       PRES   REMARKS
ASPEN          FAIR      67  18  15 S20G29    29.94F
BUENA VISTA    FAIR      66  20  17 SE17G23   29.95F
COPPER MTN     FAIR      46   7  19 W16G28    30.17F
BERTHOUD PASS  FAIR      41  30  65 W16G32    30.19S
COTTONWOOD PAS FAIR      61   7  11 W17G28    30.07F
GUNNISON       FAIR      66  23  19 VRB6G21   29.96F
KREMMLING      FAIR      73  16  11 W15G22    29.90F
LEADVILLE      FAIR      55  11  17 SE10G21   30.05F
MONARCH PASS   FAIR      45  19  36 SW28G37   30.29F
SALIDA         FAIR      67  22  18 S17G30    30.03F
SUNLIGHT       FAIR      45  19  36 SW18G35   30.12F
WILKERSON PASS FAIR      52  19  28 SW12G21   30.17S
$$

COZ069>075-232200-
...SAN LUIS VALLEY/SANGRE DE CRISTO MOUNTAINS...

CITY           SKY/WX    TMP DP  RH WIND       PRES   REMARKS
ALAMOSA        FAIR      71  19  14 SW17G30   30.00F
LA VETA PASS   FAIR      54  28  37 MISG      30.27S
SAGUACHE       FAIR      63  27  25 S13G22    30.03F
$$

COZ035-036-038>040-232200-
...NORTHERN COLORADO FRONT RANGE...

CITY           SKY/WX    TMP DP  RH WIND       PRES   REMARKS
DENVER INTL AP PTSUNNY   74  20  13 SE12G22   29.79F
DMNS CITY PARK   N/A     76  22  13 E18       29.76F
AURORA         PTSUNNY   74  26  16 E15       29.79F
FRONT RANGE AP PTSUNNY   75  19  12 E17G28    29.81F
ERIE MUNI ARPT FAIR      75  14  10 CALM      29.78F
BOULDER MUN AP FAIR      73  27  17 E7        29.78F
CENTENNIAL     PTSUNNY   75  19  12 SE8       29.79F
BROOMFIELD     PTSUNNY   73  19  13 NE7       29.81F
FORT COLLINS   FAIR      65  39  38 SE7       29.80F
LONGMONT       FAIR      76  33  21 E9        29.79F
$$

COZ041-046-047-076>085-087-088-232200-
...PIKES PEAK/PALMER DIVIDE AND SOUTHERN FOOTHILLS...

CITY           SKY/WX    TMP DP  RH WIND       PRES   REMARKS
COLO. SPRINGS  PTSUNNY   61  34  36 SE15G23   29.91F
A. F. ACADEMY  FAIR      60  37  42 S16       29.90F
SCHRIEVER AFB  FAIR      61  33  34 S14       29.92F
ELLICOTT       FAIR     N/A N/A N/A S18G24    29.89F
FALCON         FAIR      59  32  35 S17G24    29.94F
FORT CARSON    FAIR      65  31  29 SE15G25   29.89F
LIMON          FAIR      64  37  36 S20G26    29.88F
MONUMENT HILL  FAIR      61  34  36 S21G26    29.91F
TRINIDAD       FAIR      75  29  18 S10       29.90F
$$

COZ042>045-048>051-090-091-232200-
...NORTHEAST COLORADO...

CITY           SKY/WX    TMP DP  RH WIND       PRES   REMARKS
GREELEY ARPT   FAIR      64  42  44 E6        29.80F
AKRON          FAIR      68  38  33 S21G28    29.82F
BURLINGTON     NOT AVBL
WRAY           NOT AVBL
STERLING       FAIR      73  37  27 CALM      29.77F
HOLYOKE        FAIR      72  39  30 S22G29    29.83F
FORT MORGAN    FAIR      72  34  24 SE7       29.79F
$$

COZ086-089-092>099-232200-
...SOUTHEAST COLORADO...

CITY           SKY/WX    TMP DP  RH WIND       PRES   REMARKS
PUEBLO         FAIR      68  39  34 SE9       29.85F
LA JUNTA       FAIR      75  34  22 VRB5      29.84F
LAMAR          FAIR      77  34  21 S25G33    29.83F
SPRINGFIELD      N/A     70  34  26 S28G44    29.92F
$$



USA.gov is the U.S. government's official web portal to all federal, state and local government web resources and services.